Regional Weather Roundup
Issued by NWS

Home | Current Version | Previous Version | Text Only | Print | Product List | Glossary On
Versions: 1 2 3 4 5 6 7 8 9 10 11 12 13 14 15 16 17 18 19 20 21 22 23 24 25 26 27 28 29 30 31 32 33 34 35 36 37 38 39 40 41 42 43 44 45 46 47 48 49 50
000
ASUS44 KOUN 040500
RWROK

WEATHER ROUNDUP FOR OKLAHOMA
NATIONAL WEATHER SERVICE NORMAN OK
1200 AM CDT MON MAY 04 2015

NOTE: "FAIR" INDICATES FEW OR NO CLOUDS BELOW 12,000 FEET WITH NO
      SIGNIFICANT WEATHER AND/OR OBSTRUCTIONS TO VISIBILITY.

OKZ001>007-009>012-014-015-017-040600-
NORTHWEST OKLAHOMA AND THE PANHANDLE

CITY           SKY/WX    TMP DP  RH WIND       PRES   REMARKS
GAGE           CLOUDY    64  54  69 NE5       29.97R
GUYMON         CLOUDY    63  56  78 SE3       29.95R
$$

OKZ016-021>023-033>039-044-045-040600-
SOUTHWEST OKLAHOMA

CITY           SKY/WX    TMP DP  RH WIND       PRES   REMARKS
LAWTON/REGL    MOCLDY    67  59  75 SE8       29.94S
LAWTON/FT SILL MOCLDY    66  60  82 S12       29.92S
FREDERICK      MOCLDY    65  59  81 SE10      29.91R
CLINTON        CLOUDY    66  59  78 S15       29.94S
HOBART         CLOUDY    67  60  78 S13       29.93R
ALTUS AFB      CLOUDY    65  62  87 SE8       29.92S
$$

OKZ018>020-024>031-040600-
CENTRAL OKLAHOMA

CITY           SKY/WX    TMP DP  RH WIND       PRES   REMARKS
OKLAHOMA CITY  CLOUDY    65  56  72 S10       29.94S
OKC/WILEY POST CLOUDY    67  56  67 S16       29.93S
OKC/TINKER AFB   N/A     67  56  68 S16G22    29.93F
STILLWATER     CLOUDY    67  54  63 S15       29.93F
GUTHRIE        CLOUDY    68  55  63 S8        29.94R
$$

OKZ008-013-054>072-040600-
NORTHEAST OKLAHOMA

CITY           SKY/WX    TMP DP  RH WIND       PRES   REMARKS
TULSA          MOCLDY    70  54  56 S14       29.95R
TULSA/JONES    PTCLDY    67  55  65 S5        29.96S
PONCA CITY     CLOUDY    70  53  54 S9G18     29.94R
BARTLESVILLE   MOCLDY    67  55  65 S8        29.96R
MUSKOGEE       CLEAR     62  57  83 S6        30.00R
$$

OKZ032-040>043-046>053-073>077-040600-
SOUTH CENTRAL/SOUTHEAST OKLAHOMA

CITY           SKY/WX    TMP DP  RH WIND       PRES   REMARKS
MCALESTER      PTCLDY    68  55  63 S7        30.00R
$$



USA.gov is the U.S. government's official web portal to all federal, state and local government web resources and services.